Regional Weather Roundup
Issued by NWS Cleveland, OH

Home | Current Version | Previous Version | Text Only | Print | Product List | Glossary Off
Versions: 1 2 3 4 5 6 7 8 9 10 11 12 13 14 15 16 17 18 19 20 21 22 23 24 25 26 27 28 29 30 31 32 33 34 35 36 37 38 39 40 41 42 43 44 45 46 47 48 49 50

000
ASUS41 KCLE 221412
RWRCLE
OHIO REGIONAL WEATHER ROUNDUP
NATIONAL WEATHER SERVICE WILMINGTON, OH
1000 AM EDT SUN OCT 22 2017

NOTE: "FAIR" INDICATES FEW OR NO CLOUDS BELOW 12,000 FEET WITH NO
SIGNIFICANT WEATHER AND/OR OBSTRUCTIONS TO VISIBILITY.

OHZ001>008-015>018-024>027-034-035-043-044-221500-
   NORTHWEST OHIO

CITY           SKY/WX    TMP DP  RH WIND       PRES   REMARKS
DEFIANCE       FAIR      62  49  62 S8        30.16R
FINDLAY        FAIR      62  50  64 SE12      30.19R
TOLEDO EXPRESS FAIR      62  53  72 S8        30.18R
TOLEDO EXEC    FAIR      63  52  67 S12       30.20R
LIMA           FAIR      63  51  65 S13       30.19S
$$

OHZ009>014-019>023-028>033-038-089-221500-
   NORTHEAST OHIO

CITY           SKY/WX    TMP DP  RH WIND       PRES   REMARKS
CLE-HOPKINS    PTSUNNY   64  52  64 S12       30.25S
CLE-LAKEFRONT  FAIR      62  50  64 SE16      30.22S
CUY CO. ARPT   MOSUNNY   63  52  67 S14       30.24S
LORAIN-ELYRIA  FAIR      59  48  67 S13       30.24R
ASHTABULA      FAIR      61  53  75 S8        30.27S
AKRON-CANTON   PTSUNNY   63  52  67 S8        30.27R
WOOSTER        FAIR      60  52  74 S8        30.26F
MANSFIELD      FAIR      62  52  69 S9        30.24S
YOUNGSTOWN     PTSUNNY   63  52  67 S12       30.28F
$$

OHZ042-051>053-060>062-070>072-077>081-221500-
  SOUTHWEST OHIO

CITY           SKY/WX    TMP DP  RH WIND       PRES   REMARKS
CINC-COVINGTON FAIR      63  52  67 S13       30.20S
CINC-LUNKEN    FAIR      59  56  89 S5        30.23R
HAMILTON       FAIR      63  51  65 VRB3      30.22R
DAYTON         PTSUNNY   63  51  65 S12       30.22R
WRIGHT-PAT AFB FAIR      63  52  66 S9        30.21S
DAYTON GENERAL FAIR      64  50  60 S12       30.21R
WILMINGTON     FAIR      62  52  69 S9        30.24R
$$

OHZ036-037-039>041-045>050-054>059-063>069-073>076-082>088-221500-
  CENTRAL AND SOUTHEAST OHIO

CITY           SKY/WX    TMP DP  RH WIND       PRES   REMARKS
COLUMBUS       PTSUNNY   62  52  69 SE7       30.25R
OSU AIRPORT    FAIR      61  53  75 S7        30.25R
BOLTON FIELD   SUNNY     61  54  77 S7        30.26R
RICKENBACK AFB FAIR      60  54  78 S5        30.25R
NEWARK         FAIR      60  53  77 CALM      30.26R
MARION         FAIR      62  51  67 S10       30.24R
LANCASTER      FAIR      58  53  84 SE6       30.27R
ZANESVILLE     FAIR      62  53  72 S5        30.28S
NEW PHILLY     FAIR      60  52  74 SE6       30.29R
$$



USA.gov is the U.S. government's official web portal to all federal, state and local government web resources and services.